Tracking 30995 objects as of 5-Jul-2025
HD Live streaming from Space Station
objects crossing your sky now

FIRST-MOVE

Track FIRST-MOVE now!
10-day predictions
FIRST-MOVE is classified as:


NORAD ID: 39439
Int'l Code: 2013-066Z
Perigee: 467.9 km
Apogee: 498.4 km
Inclination: 97.7 °
Period: 94.1 minutes
Semi major axis: 6854 km
RCS: Unknown
Launch date: November 21, 2013
Source: Germany (GER)
Launch site: Orenburg, Russia (OREN)

Uplink (MHz): 435.520
Downlink (MHz): 145.970
Beacon (MHz): 145.970
Mode: 1200bps BPSK CW
Call sign: MOVE1
Status: Inactive

Your satellite tracking list
Your tracking list is empty




NASA's NSSDC Master Catalog

Two Line Element Set (TLE):
1 39439U 13066Z   25186.48610147  .00027071  00000-0  92799-3 0  9993
2 39439  97.7430 161.8710 0022245 253.7471 106.1321 15.29923314628872
Source of the keplerian elements: Caltech